SONATE
1 44400U 19038Q   25115.48381741  .00163952  00000-0  10442-2 0  9992
2 44400  97.6987 136.9710 0007596  79.7246 280.4875 15.75912258322432
Taurus 1
1 44530U 19059C   25115.80210488  .00014821  00000-0  27593-2 0  9999
2 44530  98.6008 253.1045 0010785 170.9499 189.1899 14.65141828297383
Duchifat 3
1 44854U 19089C   25115.83016399  .00066947  00000-0  14954-2 0  9992
2 44854  36.9447 278.9083 0001463 276.6741  83.3848 15.42440717296022
TO-108
1 44881U 19093C   25115.83534445  .00002002  00000-0  23771-3 0  9994
2 44881  97.7935 192.4205 0014270  24.5248 335.6643 14.85491807289432
FloripaSat 1
1 44885U 19093G   25115.80039199  .00010681  00000-0  90998-3 0  9998
2 44885  97.8172 203.3294 0010241   5.8498 354.2841 14.97908290290041
RS-44
1 44909U 19096E   25115.36632355  .00000003  00000-0 -35999-4 0  9991
2 44909  82.5192 257.3169 0218022  41.5440 320.2002 12.79740307248903
UPMSat 2
1 46276U 20061E   25115.18211337  .00073804  00000-0  82281-3 0  9990
2 46276  97.2482 188.2348 0001527 139.7209 220.4163 15.62581316258369
SALSAT
1 46495U 20068K   25115.19862732  .00013392  00000-0  58883-3 0  9999
2 46495  97.8573  91.1635 0010392 329.3601  30.7026 15.21977092251620
CubeSX-Sirius-HSE
1 47951U 21022V   25115.67235701  .00264611  00000-0  17396-2 0  9996
2 47951  97.4205  26.3479 0010768 105.5192 254.7263 15.74868461226730
CubeSX-HSE
1 47952U 21022W   25115.62771585  .00266254  00000-0  17118-2 0  9994
2 47952  97.4215  26.5444 0010308 102.8501 257.3916 15.75386546226745
GRBAlpha
1 47959U 21022AD  25115.85819763  .00255008  00000-0  16846-2 0  9999
2 47959  97.4202  26.9035 0010303 104.4360 255.8048 15.74788665225604
TUBIN
1 48900U 21059X   25115.84467231  .00064235  00000-0  91094-3 0  9993
2 48900  97.6722 281.5849 0002787  54.6018 305.5496 15.56241446213074
LEDSAT
1 49069U 21073D   25115.79033996  .00079156  00000-0  11851-2 0  9997
2 49069  97.3920 195.6547 0011520 232.4571 127.5637 15.54630534204463
CUTE
1 49263U 21088D   25115.11767294  .00030167  00000-0  63534-3 0  9995
2 49263  97.4518 190.1073 0009342  55.3457 304.8671 15.45177942197403
TeikyoSat 4
1 49396U 21102B   25115.68149145  .00002989  00000-0  20118-3 0  9992
2 49396  97.4144 155.7253 0010884 289.9590  70.0466 15.07414720189780
Z-Sat
1 49399U 21102E   25115.88035381  .00007318  00000-0  40562-3 0  9999
2 49399  97.3847 158.7434 0016603 257.2798 102.6578 15.13964173190214
KOSEN 1
1 49402U 21102H   25115.57506650  .00010733  00000-0  50596-3 0  9995
2 49402  97.3758 161.5308 0014804 231.6438 128.3467 15.19569565190450
HO-113
1 50466U 21131B   25115.89830118  .00001046  00000-0  34101-3 0  9994
2 50466  98.5084 205.4764 0002959 266.5667  93.5183 14.40748104175014
IRIS-A
1 51044U 22002BN  25115.64482201  .00249711  00000-0  13042-2 0  9997
2 51044  97.3285 193.7275 0003624 253.9645 106.1224 15.80181995182759
Foresail-1
1 52766U 22057AL  25115.36727316  .00185338  00000-0  11606-2 0  9995
2 52766  97.6023 262.3862 0000987 159.8171 200.3133 15.76274884162733
SNUGLITE 2
1 52899U 22065F   25115.62874415  .00002505  00000-0  49699-3 0  9991
2 52899  98.1613 258.0600 0006463 249.6008 110.4500 14.63075384149918
IO-117
1 53106U 22080B   25051.21822557 -.00000003  00000-0  00000+0 0  9995
2 53106  70.1434 106.3440 0008542  48.0089 312.1297  6.42557744 61200
UmKA 1 (RS40S)
1 57172U 23091G   25115.82868844  .00010970  00000-0  59300-3 0  9996
2 57172  97.5627 171.4517 0016135 126.8467 233.4247 15.14749592100706
CubeBel-2 (EU11S)
1 57175U 23091K   25115.83764944  .00017436  00000-0  85008-3 0  9994
2 57175  97.5626 172.3491 0013945 135.1057 225.1307 15.18302600100763
VERONIKA
1 58261U 23174F   25115.81877442  .00129292  00000-0  16275-2 0  9992
2 58261  97.4156 199.6936 0007789 205.5716 154.5156 15.59175642 81681
ENSO
1 58470U 23185J   25115.86855710  .00068772  00000-0  11843-2 0  9996
2 58470  97.3771 189.7120 0007900 229.4347 130.6218 15.50810697 78092
EIRSAT-1
1 58472U 23185L   25115.83150909  .00105514  00000-0  13633-2 0  9998
2 58472  97.3743 190.9333 0007369 227.5184 132.5449 15.58567520 78178
SONATE-2
1 59112U 24043Q   25115.25309628  .00026654  00000-0  80893-3 0  9994
2 59112  97.5059 245.5936 0010399 273.2410  86.7642 15.34023390 63383
MO-122
1 60209U 24125G   25115.53731834  .00026318  00000-0  78830-3 0  9998
2 60209  97.2858 327.7009 0017884 300.8371  59.1112 15.34333113 45045
GRBBeta
1 60237U 24128C   25115.74506294  .00007425  00000-0  56239-3 0  9992
2 60237  61.9918 235.8292 0047887  47.5555 312.9570 15.02189082 43460
Curium One
1 60242U 24128H   25115.51860576  .00012622  00000-0  89143-3 0  9994
2 60242  61.9817 235.5309 0047747  43.0249 317.4559 15.04345104 43453
ROBUSTA-3A
1 60243U 24128J   25115.50804365  .00012355  00000-0  88431-3 0  9990
2 60243  61.9891 236.2523 0046295  40.9303 319.5248 15.03915836 43447
CatSat
1 60246U 24125J   25115.16795212  .00013382  00000-0  46057-3 0  9991
2 60246  97.2642 327.0449 0041838 255.1331 104.5274 15.29321504 43049
HYPERVIEW-1G (RS66S)
1 61772U 24199AP  25115.87877495  .00031091  00000-0  95791-3 0  9995
2 61772  97.3608 344.8756 0013729   1.4104 358.7175 15.33470838 70103
AO-123
1 61781U 24199AY  25115.85371667  .00011774  00000-0  43632-3 0  9996
2 61781  97.3618 344.1702 0015969   3.1711 356.9626 15.27666074 70056
ZIMSAT 2
1 61783U 24199BA  25115.86660639  .00053123  00000-0  14468-2 0  9997
2 61783  97.3592 345.1826 0013774 359.7477   0.3758 15.37223756 73278
HADES-R (SO-124)
1 62690U 25009CK  25115.21344942  .00045941  00000-0  18000-2 0  9996
2 62690  97.4112 196.3060 0003403 214.1276 145.9744 15.25628417 15222
HYDRA-T
1 62692U 25009CM  25115.53328620  .00048843  00000-0  19003-2 0  9996
2 62692  97.4110 196.6414 0003601 209.6074 150.4961 15.25846217 15270
JINJUSat 1B
1 63210U 25052A   25115.43847032  .00018808  00000-0  88824-3 0  9999
2 63210  97.4479  10.1578 0006370 110.7994 249.3924 15.19456925  6391
NUSHSAT 1
1 63211U 25052B   25115.17494045  .00019954  00000-0  93969-3 0  9992
2 63211  97.4470   9.8936 0006426 115.4361 244.7539 15.19543181  6356
TEVEL2-4
1 63213U 25052D   25115.50973347  .00020059  00000-0  95096-3 0  9999
2 63213  97.4385  10.1688 0005193 123.4549 236.7182 15.19317179  6406
TEVEL2-5
1 63214U 25052E   25115.64160960  .00019543  00000-0  92677-3 0  9992
2 63214  97.4386  10.2986 0005141 122.8928 237.2801 15.19312095  6425
TEVEL2-6
1 63215U 25052F   25115.64256875  .00019538  00000-0  92760-3 0  9991
2 63215  97.4385  10.2978 0005209 124.1980 235.9749 15.19272649  6420
TEVEL2-1
1 63217U 25052H   25115.51581110  .00020018  00000-0  95571-3 0  9990
2 63217  97.4366  10.1475 0005150 135.9557 224.2089 15.19073419  6407
TEVEL2-2
1 63218U 25052J   25115.58190535  .00019608  00000-0  93637-3 0  9999
2 63218  97.4362  10.2138 0005040 135.1611 225.0031 15.19070238  6415
TEVEL2-3
1 63219U 25052K   25115.58191497  .00018205  00000-0  86983-3 0  9996
2 63219  97.4363  10.2134 0004969 134.6976 225.4664 15.19066573  6413
TEVEL2-8
1 63237U 25052AD  25115.15090937  .00018919  00000-0  93406-3 0  9996
2 63237  97.4424   9.7519 0008931 159.1063 201.0537 15.17892715  6347
TEVEL2-9
1 63238U 25052AE  25115.15171827  .00018221  00000-0  90092-3 0  9999
2 63238  97.4425   9.7521 0009000 159.5363 200.6233 15.17850378  6344
TEVEL2-7
1 63239U 25052AF  25115.41632540  .00017865  00000-0  88404-3 0  9990
2 63239  97.4422  10.0093 0009071 158.5270 201.6346 15.17824378  6386
HYDRA-W
1 63490U 25052BL  25115.83915710  .00041316  00000-0  18760-2 0  9993
2 63490  97.4379  10.4895 0013392 157.8666 202.3150 15.20580008  6454
HADES-ICM
1 63492U 25052BN  25115.90924987  .00038412  00000-0  17601-2 0  9995
2 63492  97.4385  10.5503 0013503 161.6389 198.5336 15.20282815  6467
